Comodoro Rivadavia, Argentina

11:01 AM America en Agosto 17, 2018 (GMT +0000)
GEN. Enrique Mosconi International

Tiempo Historia de SAVC - Agosto, 2018

Change the Weather History Date:

Viernes, Agosto 10, 2018

  Actual Average Record
Temperature  
Temperatura media 52 ° F -  
Temperatura máxima 59 ° F 56 ° F 68 ° F (2003)
Temperatura mínima 44 ° F 39 ° F 30 ° F (2007)
Degree Days  
Grados día de calefacción 14    
Growing Degree Days 2 (Base 50)    
Moisture  
Punto de rocío 36 ° F    
Average Humidity 54    
Maximum Humidity 71    
Minimum Humidity 38    
Precipitación  
Precipitación 0.00 pul 0.03 pul - ()
Presión al nivel del mar  
Presión al nivel del mar 30.06 pul    
Viento  
Velocidad del viento 5 mph ()    
Velocidad máxima del viento 12 mph    
Max Gust Speed -    
Visibilidad 16.4 Millas    
Eventos      
Averages and records for this station are not official NWS values.
T = Trace of Precipitation, MM = Missing Value Source: Averaged Metar Reports

Daily Weather History Graph

Daily Weather History Graph

Search for Another Location

Airport or City:

Astronomía

Aug. 10, 2018 Salida Puesta
Hora real 8:36 AM -03 6:34 PM -03
Crepúsculo civil 8:05 AM -03 7:06 PM -03
Crepúsculo náutico 7:29 AM -03 7:41 PM -03
Crepúsculo astronómico 6:55 AM -03 8:16 PM -03
Luna 8:05 AM -03 (8/10) 5:45 PM -03 (8/10)
Horas de luz 11h 01m
Horas de luz
9h 58m
Creciente menguante, 1% of the Moon is Illuminated
Ago 10
Creciente menguante
Ago 11
Nueva
Ago 18
Cuarto creciente
Ago 26
Luna llena
Sep 2
Cuarto menguante

Hourly Weather History & Observations

Hora (-03) Temp. Vientos helados Punto de rocío Humedad Presión Visibilidad Wind Dir Velocidad del viento Velocidad de ráfagas Precip Eventos Condiciones
12:00 AM 51 ° F - 34 ° F 39% 29.99 pul 19 mi NNO 5.8 mph - -   Nublado
12:00 AM 51.8 ° F - 33.8 ° F 50% 30.01 pul - NNO 5.8 mph - N/A   Despejado
1:00 AM 51.8 ° F - 33.8 ° F 50% 30.04 pul - NNE 3.5 mph - N/A   Despejado
2:00 AM 48.2 ° F - 37.4 ° F 66% 30.04 pul - Sin viento Sin viento - N/A   Despejado
3:00 AM 47 ° F - 37 ° F 59% 30.00 pul 19 mi NO 3.5 mph - -   Nublado
3:00 AM 46.4 ° F 45.2 ° F 37.4 ° F 71% 30.04 pul - NO 3.5 mph - N/A   Despejado
4:00 AM 48.2 ° F - 35.6 ° F 62% 30.04 pul - OSO 3.5 mph - N/A   Despejado
5:00 AM 48.2 ° F - 32.0 ° F 54% 30.04 pul - NO 8.1 mph - N/A   Despejado
6:00 AM 49 ° F - 32 ° F 40% 30.01 pul 19 mi ONO 8.1 mph - -   Nublado
6:00 AM 50.0 ° F - 32.0 ° F 50% 30.04 pul - ONO 8.1 mph - N/A   Despejado
7:00 AM 50.0 ° F - 33.8 ° F 54% 30.04 pul - ONO 6.9 mph - N/A   Despejado
8:00 AM 50.0 ° F - 33.8 ° F 54% 30.04 pul - NO 6.9 mph - N/A   Despejado
9:00 AM 49 ° F - 33 ° F 42% 30.01 pul 19 mi Oeste 11.5 mph - -   Muy nublado
9:00 AM 48.2 ° F - 33.8 ° F 58% 30.04 pul - Oeste 11.5 mph - N/A   Despejado
10:00 AM 48.2 ° F - 33.8 ° F 58% 30.04 pul - ONO 11.5 mph - N/A   Despejado
11:00 AM 51.8 ° F - 35.6 ° F 54% 30.06 pul 6.2 mi NO 8.1 mph - N/A   Nubes dispersas
12:00 PM 55 ° F - 37 ° F 38% 30.07 pul 19 mi SO 6.9 mph - -   Nubes dispersas
12:00 PM 55.4 ° F - 37.4 ° F 51% 30.09 pul 6.2 mi SO 6.9 mph - N/A   Parcialmente nublado
1:00 PM 57.2 ° F - 37.4 ° F 48% 30.09 pul - ONO 5.8 mph - N/A   Despejado
2:00 PM 59.0 ° F - 39.2 ° F 48% 30.06 pul - OSO 6.9 mph - N/A   Despejado
3:00 PM 57 ° F - 40 ° F 42% 30.03 pul 19 mi Oeste 5.8 mph - -   Nubes dispersas
3:00 PM 57.2 ° F - 41.0 ° F 55% 30.06 pul - SSE 5.8 mph - N/A   Despejado
4:00 PM 55.4 ° F - 42.8 ° F 63% 30.06 pul - SE 3.5 mph - N/A   Despejado
5:00 PM 55.4 ° F - 41.0 ° F 58% 30.06 pul - ESE 4.6 mph - N/A   Despejado
6:00 PM 53 ° F - 40 ° F 51% 30.06 pul 19 mi NNE 3.5 mph - -   Nubes dispersas
6:00 PM 53.6 ° F - 41.0 ° F 62% 30.09 pul - NNE 3.5 mph - N/A   Despejado
7:00 PM 51.8 ° F - 35.6 ° F 54% 30.09 pul - Oeste 4.6 mph - N/A   Despejado
8:00 PM 50.0 ° F - 32.0 ° F 50% 30.12 pul - Oeste 8.1 mph - N/A   Despejado
9:00 PM 47 ° F - 34 ° F 49% 30.09 pul 19 mi Oeste 9.2 mph - -  
9:00 PM 46.4 ° F 41.9 ° F 33.8 ° F 62% 30.12 pul - Oeste 9.2 mph - N/A   Despejado
10:00 PM 46.4 ° F 44.3 ° F 33.8 ° F 62% 30.12 pul - Oeste 4.6 mph - N/A   Despejado
11:00 PM 46.4 ° F 41.9 ° F 35.6 ° F 66% 30.12 pul - Oeste 9.2 mph - N/A   Despejado